Time,TemperatureF,DewpointF,PressureIn,WindDirection,WindDirectionDegrees,WindSpeedMPH,WindSpeedGustMPH,Humidity,HourlyPrecipIn,Conditions,Clouds,dailyrainin,SolarRadiationWatts/m^2,SoftwareType,DateUTC
2013-06-25 00:02:00,71.3,69.2,29.94,WSW,248,0.0,0.0,93,0.00,,,0.11,0,Wunderground v.1.15,2013-06-25 04:02:00,
2013-06-25 00:04:00,71.3,69.2,29.94,WSW,248,0.0,0.0,93,0.00,,,0.11,0,Wunderground v.1.15,2013-06-25 04:04:00,
2013-06-25 00:06:00,71.3,69.2,29.94,WSW,248,0.0,6.0,93,0.00,,,0.11,0,Wunderground v.1.15,2013-06-25 04:06:00,
2013-06-25 00:08:00,71.3,69.2,29.94,WSW,248,0.0,6.0,93,0.00,,,0.11,0,Wunderground v.1.15,2013-06-25 04:08:00,
2013-06-25 00:14:00,71.1,69.3,29.94,WSW,248,0.0,6.0,94,0.00,,,0.11,0,Wunderground v.1.15,2013-06-25 04:14:00,
2013-06-25 00:18:00,71.1,69.3,29.94,WSW,248,0.0,6.0,94,0.00,,,0.11,0,Wunderground v.1.15,2013-06-25 04:18:00,
2013-06-25 00:24:00,71.1,69.3,29.94,WSW,248,0.0,6.0,94,0.00,,,0.11,0,Wunderground v.1.15,2013-06-25 04:24:00,
2013-06-25 00:30:00,70.9,69.1,29.94,WSW,248,0.0,6.0,94,0.00,,,0.11,0,Wunderground v.1.15,2013-06-25 04:30:00,
2013-06-25 00:36:00,70.9,69.1,29.94,WSW,248,0.0,6.0,94,0.00,,,0.11,0,Wunderground v.1.15,2013-06-25 04:36:00,
2013-06-25 00:42:00,70.9,69.1,29.94,West,277,0.0,6.0,94,0.00,,,0.11,0,Wunderground v.1.15,2013-06-25 04:42:00,
2013-06-25 00:48:00,70.9,69.1,29.94,SE,138,1.0,6.0,94,0.00,,,0.11,0,Wunderground v.1.15,2013-06-25 04:48:00,
2013-06-25 00:54:00,70.9,69.1,29.94,SW,234,1.0,6.0,94,0.00,,,0.11,0,Wunderground v.1.15,2013-06-25 04:54:00,
2013-06-25 01:00:00,70.9,69.1,29.94,West,271,1.0,1.0,94,0.00,,,0.11,0,Wunderground v.1.15,2013-06-25 05:00:00,
2013-06-25 01:06:00,70.9,69.1,29.94,West,271,1.0,6.0,94,0.00,,,0.11,0,Wunderground v.1.15,2013-06-25 05:06:00,
2013-06-25 01:12:00,70.8,69.0,29.94,WSW,246,1.0,1.0,94,0.00,,,0.11,0,Wunderground v.1.15,2013-06-25 05:12:00,
2013-06-25 01:18:00,70.8,69.0,29.94,WSW,238,1.0,1.0,94,0.00,,,0.11,0,Wunderground v.1.15,2013-06-25 05:18:00,
2013-06-25 01:24:00,70.6,68.8,29.94,West,261,1.0,1.0,94,0.00,,,0.11,0,Wunderground v.1.15,2013-06-25 05:24:00,
2013-06-25 01:30:00,70.6,68.5,29.94,WNW,294,1.0,1.0,93,0.00,,,0.11,0,Wunderground v.1.15,2013-06-25 05:30:00,
2013-06-25 01:36:00,70.6,68.5,29.94,WNW,293,1.0,4.0,93,0.00,,,0.11,0,Wunderground v.1.15,2013-06-25 05:36:00,
2013-06-25 01:42:00,70.4,68.3,29.94,NW,325,1.0,1.0,93,0.00,,,0.11,0,Wunderground v.1.15,2013-06-25 05:42:00,
2013-06-25 01:48:00,70.4,68.3,29.95,West,271,1.0,2.0,93,0.00,,,0.11,0,Wunderground v.1.15,2013-06-25 05:48:00,
2013-06-25 01:54:00,70.4,68.3,29.95,West,270,1.0,2.0,93,0.00,,,0.11,0,Wunderground v.1.15,2013-06-25 05:54:00,
2013-06-25 02:00:00,70.6,68.2,29.95,West,270,1.0,1.0,92,0.00,,,0.11,0,Wunderground v.1.15,2013-06-25 06:00:00,
2013-06-25 02:06:00,70.4,68.0,29.94,West,270,0.0,1.0,92,0.00,,,0.11,0,Wunderground v.1.15,2013-06-25 06:06:00,
2013-06-25 02:12:00,70.4,68.0,29.94,West,270,0.0,0.0,92,0.00,,,0.11,0,Wunderground v.1.15,2013-06-25 06:12:00,
2013-06-25 02:18:00,70.4,68.0,29.94,SE,124,0.0,1.0,92,0.00,,,0.11,0,Wunderground v.1.15,2013-06-25 06:18:00,
2013-06-25 02:24:00,70.4,68.0,29.94,SSW,209,1.0,1.0,92,0.00,,,0.11,0,Wunderground v.1.15,2013-06-25 06:24:00,
2013-06-25 02:30:00,70.3,67.9,29.94,SSW,209,1.0,1.0,92,0.00,,,0.11,0,Wunderground v.1.15,2013-06-25 06:30:00,
2013-06-25 02:36:00,70.3,67.9,29.93,South,182,0.0,3.0,92,0.00,,,0.11,0,Wunderground v.1.15,2013-06-25 06:36:00,
2013-06-25 02:42:00,70.1,67.7,29.93,South,171,1.0,2.0,92,0.00,,,0.11,0,Wunderground v.1.15,2013-06-25 06:42:00,
2013-06-25 02:48:00,70.1,67.7,29.93,South,180,1.0,2.0,92,0.00,,,0.11,0,Wunderground v.1.15,2013-06-25 06:48:00,
2013-06-25 02:54:00,69.9,67.5,29.93,SSW,194,1.0,3.0,92,0.00,,,0.11,0,Wunderground v.1.15,2013-06-25 06:54:00,
2013-06-25 03:00:00,69.9,67.5,29.93,WSW,242,1.0,1.0,92,0.00,,,0.11,0,Wunderground v.1.15,2013-06-25 07:00:00,
2013-06-25 03:06:00,69.8,67.4,29.93,SW,232,0.0,1.0,92,0.00,,,0.11,0,Wunderground v.1.15,2013-06-25 07:06:00,
2013-06-25 03:12:00,69.8,67.4,29.93,South,180,1.0,1.0,92,0.00,,,0.11,0,Wunderground v.1.15,2013-06-25 07:12:00,
2013-06-25 03:18:00,69.8,67.4,29.92,West,279,0.0,1.0,92,0.00,,,0.11,0,Wunderground v.1.15,2013-06-25 07:18:00,
2013-06-25 03:24:00,69.8,67.4,29.92,SSE,165,1.0,1.0,92,0.00,,,0.11,0,Wunderground v.1.15,2013-06-25 07:24:00,
2013-06-25 03:30:00,69.8,67.4,29.92,South,190,1.0,2.0,92,0.00,,,0.11,0,Wunderground v.1.15,2013-06-25 07:30:00,
2013-06-25 03:36:00,69.8,67.4,29.91,SW,221,1.0,1.0,92,0.00,,,0.11,0,Wunderground v.1.15,2013-06-25 07:36:00,
2013-06-25 03:42:00,69.8,67.4,29.91,WSW,253,0.0,1.0,92,0.00,,,0.11,0,Wunderground v.1.15,2013-06-25 07:42:00,
2013-06-25 03:48:00,69.8,67.4,29.92,SW,235,0.0,0.0,92,0.00,,,0.11,0,Wunderground v.1.15,2013-06-25 07:48:00,
2013-06-25 03:54:00,69.6,67.2,29.92,SW,235,0.0,0.0,92,0.00,,,0.11,0,Wunderground v.1.15,2013-06-25 07:54:00,
2013-06-25 04:00:00,69.6,67.2,29.92,SW,235,0.0,0.0,92,0.00,,,0.11,0,Wunderground v.1.15,2013-06-25 08:00:00,
2013-06-25 04:06:00,69.6,67.2,29.92,SSW,211,0.0,0.0,92,0.00,,,0.11,0,Wunderground v.1.15,2013-06-25 08:06:00,
2013-06-25 04:12:00,69.6,67.2,29.92,SSW,211,0.0,0.0,92,0.00,,,0.11,0,Wunderground v.1.15,2013-06-25 08:12:00,
2013-06-25 04:18:00,69.6,66.9,29.92,WSW,254,0.0,1.0,91,0.00,,,0.11,0,Wunderground v.1.15,2013-06-25 08:18:00,
2013-06-25 04:24:00,69.6,66.9,29.92,WSW,258,0.0,1.0,91,0.00,,,0.11,0,Wunderground v.1.15,2013-06-25 08:24:00,
2013-06-25 04:30:00,69.6,66.9,29.92,WSW,258,1.0,1.0,91,0.00,,,0.11,0,Wunderground v.1.15,2013-06-25 08:30:00,
2013-06-25 04:36:00,69.6,66.9,29.92,West,259,1.0,1.0,91,0.00,,,0.11,0,Wunderground v.1.15,2013-06-25 08:36:00,
2013-06-25 04:42:00,69.6,66.9,29.92,WSW,256,1.0,2.0,91,0.00,,,0.11,0,Wunderground v.1.15,2013-06-25 08:42:00,
2013-06-25 04:48:00,69.6,66.5,29.93,NW,321,1.0,4.0,90,0.00,,,0.11,0,Wunderground v.1.15,2013-06-25 08:48:00,
2013-06-25 04:54:00,69.8,66.7,29.93,West,281,1.0,1.0,90,0.00,,,0.11,0,Wunderground v.1.15,2013-06-25 08:54:00,
2013-06-25 05:00:00,69.8,66.4,29.93,West,281,0.0,0.0,89,0.00,,,0.11,0,Wunderground v.1.15,2013-06-25 09:00:00,
2013-06-25 05:06:00,69.8,66.4,29.93,West,281,0.0,2.0,89,0.00,,,0.11,0,Wunderground v.1.15,2013-06-25 09:06:00,
2013-06-25 05:12:00,69.8,66.4,29.93,West,279,0.0,4.0,89,0.00,,,0.11,0,Wunderground v.1.15,2013-06-25 09:12:00,
2013-06-25 05:18:00,69.8,66.4,29.93,West,279,0.0,4.0,89,0.00,,,0.11,0,Wunderground v.1.15,2013-06-25 09:18:00,
2013-06-25 05:24:00,69.9,66.2,29.93,West,279,0.0,2.0,88,0.00,,,0.00,0,Wunderground v.1.15,2013-06-25 09:24:00,
2013-06-25 05:30:00,70.1,66.4,29.93,SW,235,0.0,2.0,88,0.00,,,0.00,5,Wunderground v.1.15,2013-06-25 09:30:00,
2013-06-25 05:36:00,70.1,66.0,29.93,SW,215,0.0,2.0,87,0.00,,,0.00,7,Wunderground v.1.15,2013-06-25 09:36:00,
2013-06-25 05:42:00,70.3,65.9,29.93,West,271,1.0,4.0,86,0.00,,,0.00,9,Wunderground v.1.15,2013-06-25 09:42:00,
2013-06-25 05:48:00,70.4,66.0,29.93,West,267,1.0,4.0,86,0.00,,,0.00,12,Wunderground v.1.15,2013-06-25 09:48:00,
2013-06-25 05:54:00,70.6,66.2,29.93,West,275,0.0,2.0,86,0.00,,,0.00,16,Wunderground v.1.15,2013-06-25 09:54:00,
2013-06-25 06:00:00,70.4,66.0,29.93,West,275,1.0,1.0,86,0.00,,,0.00,21,Wunderground v.1.15,2013-06-25 10:00:00,
2013-06-25 06:06:00,70.4,66.0,29.94,West,275,1.0,4.0,86,0.00,,,0.00,26,Wunderground v.1.15,2013-06-25 10:06:00,
2013-06-25 06:12:00,70.6,66.2,29.94,WSW,248,1.0,6.0,86,0.00,,,0.00,33,Wunderground v.1.15,2013-06-25 10:12:00,
2013-06-25 06:18:00,70.8,66.1,29.93,WSW,243,1.0,6.0,85,0.00,,,0.00,44,Wunderground v.1.15,2013-06-25 10:18:00,
2013-06-25 06:24:00,70.8,66.1,29.93,WSW,250,1.0,4.0,85,0.00,,,0.00,51,Wunderground v.1.15,2013-06-25 10:24:00,
2013-06-25 06:30:00,70.9,65.8,29.93,WSW,254,1.0,4.0,84,0.00,,,0.00,58,Wunderground v.1.15,2013-06-25 10:30:00,
2013-06-25 06:36:00,71.1,66.0,29.92,WSW,248,1.0,4.0,84,0.00,,,0.00,65,Wunderground v.1.15,2013-06-25 10:36:00,
2013-06-25 06:42:00,71.1,66.0,29.92,West,266,1.0,4.0,84,0.00,,,0.00,72,Wunderground v.1.15,2013-06-25 10:42:00,
2013-06-25 06:48:00,71.1,66.0,29.93,West,276,1.0,4.0,84,0.00,,,0.00,77,Wunderground v.1.15,2013-06-25 10:48:00,
2013-06-25 06:54:00,71.1,66.0,29.93,West,262,1.0,4.0,84,0.00,,,0.00,67,Wunderground v.1.15,2013-06-25 10:54:00,
2013-06-25 07:00:00,71.3,66.2,29.93,West,262,1.0,1.0,84,0.00,,,0.00,84,Wunderground v.1.15,2013-06-25 11:00:00,
2013-06-25 07:06:00,71.3,66.2,29.92,West,262,0.0,4.0,84,0.00,,,0.00,279,Wunderground v.1.15,2013-06-25 11:06:00,
2013-06-25 07:12:00,71.8,66.4,29.92,WSW,243,0.0,7.0,83,0.00,,,0.00,244,Wunderground v.1.15,2013-06-25 11:12:00,
2013-06-25 07:18:00,72.5,66.3,29.92,SSW,213,1.0,7.0,81,0.00,,,0.00,267,Wunderground v.1.15,2013-06-25 11:18:00,
2013-06-25 07:24:00,72.8,65.9,29.92,West,280,2.0,5.0,79,0.00,,,0.00,192,Wunderground v.1.15,2013-06-25 11:24:00,
2013-06-25 07:30:00,73.5,66.2,29.92,West,263,2.0,2.0,78,0.00,,,0.00,397,Wunderground v.1.15,2013-06-25 11:30:00,
2013-06-25 07:36:00,74.2,65.8,29.92,WSW,247,2.0,6.0,75,0.00,,,0.00,406,Wunderground v.1.15,2013-06-25 11:36:00,
2013-06-25 07:42:00,74.6,65.8,29.92,SW,217,2.0,3.0,74,0.00,,,0.00,299,Wunderground v.1.15,2013-06-25 11:42:00,
2013-06-25 07:48:00,74.9,66.1,29.91,SW,218,2.0,3.0,74,0.00,,,0.00,387,Wunderground v.1.15,2013-06-25 11:48:00,
2013-06-25 07:54:00,74.9,66.1,29.91,SW,232,3.0,5.0,74,0.00,,,0.00,281,Wunderground v.1.15,2013-06-25 11:54:00,
2013-06-25 08:00:00,75.1,66.6,29.91,WSW,244,3.0,3.0,75,0.00,,,0.00,408,Wunderground v.1.15,2013-06-25 12:00:00,
2013-06-25 08:06:00,75.3,66.4,29.91,West,267,2.0,4.0,74,0.00,,,0.00,202,Wunderground v.1.15,2013-06-25 12:06:00,
2013-06-25 08:12:00,75.6,65.9,29.91,West,267,2.0,4.0,72,0.00,,,0.00,431,Wunderground v.1.15,2013-06-25 12:12:00,
2013-06-25 08:18:00,76.3,65.4,29.91,WSW,247,2.0,6.0,69,0.00,,,0.00,455,Wunderground v.1.15,2013-06-25 12:18:00,
2013-06-25 08:24:00,76.7,65.3,29.91,West,260,3.0,9.0,68,0.00,,,0.00,462,Wunderground v.1.15,2013-06-25 12:24:00,
2013-06-25 08:30:00,77.2,65.8,29.91,West,262,2.0,2.0,68,0.00,,,0.00,468,Wunderground v.1.15,2013-06-25 12:30:00,
2013-06-25 08:36:00,77.7,65.9,29.92,SW,229,1.0,4.0,67,0.00,,,0.00,490,Wunderground v.1.15,2013-06-25 12:36:00,
2013-06-25 08:42:00,78.3,66.4,29.92,WNW,290,2.0,4.0,67,0.00,,,0.00,515,Wunderground v.1.15,2013-06-25 12:42:00,
2013-06-25 08:48:00,78.8,66.0,29.91,WNW,293,2.0,4.0,65,0.00,,,0.00,548,Wunderground v.1.15,2013-06-25 12:48:00,
2013-06-25 08:54:00,79.6,66.8,29.91,WNW,292,1.0,6.0,65,0.00,,,0.00,563,Wunderground v.1.15,2013-06-25 12:54:00,
2013-06-25 09:00:00,79.9,66.6,29.91,West,279,1.0,4.0,64,0.00,,,0.00,584,Wunderground v.1.15,2013-06-25 13:00:00,
2013-06-25 09:06:00,80.3,66.1,29.91,SW,233,2.0,5.0,62,0.00,,,0.00,599,Wunderground v.1.15,2013-06-25 13:06:00,
2013-06-25 09:12:00,80.5,65.3,29.91,NW,316,4.0,5.0,60,0.00,,,0.00,613,Wunderground v.1.15,2013-06-25 13:12:00,
2013-06-25 09:18:00,80.7,66.0,29.91,West,267,4.0,5.0,61,0.00,,,0.00,631,Wunderground v.1.15,2013-06-25 13:18:00,
2013-06-25 09:24:00,81.2,66.5,29.91,West,279,2.0,5.0,61,0.00,,,0.00,650,Wunderground v.1.15,2013-06-25 13:24:00,
2013-06-25 09:30:00,81.8,66.1,29.91,NW,318,1.0,5.0,59,0.00,,,0.00,652,Wunderground v.1.15,2013-06-25 13:30:00,
2013-06-25 09:36:00,82.6,66.3,29.90,WNW,283,1.0,5.0,58,0.00,,,0.00,670,Wunderground v.1.15,2013-06-25 13:36:00,
2013-06-25 09:42:00,82.8,65.5,29.90,NW,313,1.0,9.0,56,0.00,,,0.00,684,Wunderground v.1.15,2013-06-25 13:42:00,
2013-06-25 09:48:00,83.6,66.2,29.90,WNW,288,2.0,9.0,56,0.00,,,0.00,698,Wunderground v.1.15,2013-06-25 13:48:00,
2013-06-25 09:54:00,83.8,66.4,29.90,SSE,148,1.0,5.0,56,0.00,,,0.00,721,Wunderground v.1.15,2013-06-25 13:54:00,
2013-06-25 10:00:00,83.8,66.4,29.90,SSE,152,2.0,2.0,56,0.00,,,0.00,738,Wunderground v.1.15,2013-06-25 14:00:00,
2013-06-25 10:06:00,84.3,66.4,29.90,SSW,207,1.0,5.0,55,0.00,,,0.00,749,Wunderground v.1.15,2013-06-25 14:06:00,
2013-06-25 10:12:00,84.3,65.8,29.90,SW,236,2.0,2.0,54,0.00,,,0.00,761,Wunderground v.1.15,2013-06-25 14:12:00,
2013-06-25 10:18:00,84.1,66.2,29.89,West,276,3.0,4.0,55,0.00,,,0.00,770,Wunderground v.1.15,2013-06-25 14:18:00,
2013-06-25 10:24:00,84.7,66.7,29.89,West,274,2.0,4.0,55,0.00,,,0.00,775,Wunderground v.1.15,2013-06-25 14:24:00,
2013-06-25 10:30:00,85.3,65.7,29.89,SW,219,2.0,2.0,52,0.00,,,0.00,780,Wunderground v.1.15,2013-06-25 14:30:00,
2013-06-25 10:36:00,85.7,66.0,29.91,WNW,300,2.0,6.0,52,0.00,,,0.00,796,Wunderground v.1.15,2013-06-25 14:36:00,
2013-06-25 10:42:00,85.9,66.8,29.91,NW,311,3.0,4.0,53,0.00,,,0.00,807,Wunderground v.1.15,2013-06-25 14:42:00,
2013-06-25 10:48:00,86.5,66.8,29.90,NW,304,2.0,6.0,52,0.00,,,0.00,817,Wunderground v.1.15,2013-06-25 14:48:00,
2013-06-25 10:54:00,86.5,66.8,29.90,WSW,239,2.0,10.0,52,0.00,,,0.00,824,Wunderground v.1.15,2013-06-25 14:54:00,
2013-06-25 11:00:00,86.1,67.5,29.90,WNW,288,2.0,2.0,54,0.00,,,0.00,837,Wunderground v.1.15,2013-06-25 15:00:00,
2013-06-25 11:06:00,86.5,66.2,29.91,West,272,3.0,11.0,51,0.00,,,0.00,847,Wunderground v.1.15,2013-06-25 15:06:00,
2013-06-25 11:12:00,86.5,67.3,29.91,West,267,4.0,11.0,53,0.00,,,0.00,853,Wunderground v.1.15,2013-06-25 15:12:00,
2013-06-25 11:18:00,86.7,66.4,29.91,West,272,3.0,11.0,51,0.00,,,0.00,860,Wunderground v.1.15,2013-06-25 15:18:00,
2013-06-25 11:24:00,86.5,66.8,29.91,SW,231,5.0,11.0,52,0.00,,,0.00,867,Wunderground v.1.15,2013-06-25 15:24:00,
2013-06-25 11:30:00,86.7,67.0,29.91,West,278,4.0,4.0,52,0.00,,,0.00,875,Wunderground v.1.15,2013-06-25 15:30:00,
2013-06-25 11:36:00,87.6,67.2,29.90,WSW,255,3.0,11.0,51,0.00,,,0.00,886,Wunderground v.1.15,2013-06-25 15:36:00,
2013-06-25 11:42:00,87.6,66.7,29.90,NW,306,4.0,11.0,50,0.00,,,0.00,886,Wunderground v.1.15,2013-06-25 15:42:00,
2013-06-25 11:48:00,87.6,67.2,29.90,SW,217,4.0,11.0,51,0.00,,,0.00,898,Wunderground v.1.15,2013-06-25 15:48:00,
2013-06-25 11:54:00,88.0,67.0,29.90,WNW,295,4.0,11.0,50,0.00,,,0.00,905,Wunderground v.1.15,2013-06-25 15:54:00,
2013-06-25 12:00:00,87.8,68.0,29.90,WSW,242,5.0,11.0,52,0.00,,,0.00,902,Wunderground v.1.15,2013-06-25 16:00:00,
2013-06-25 12:06:00,88.2,67.2,29.90,WNW,297,4.0,11.0,50,0.00,,,0.00,912,Wunderground v.1.15,2013-06-25 16:06:00,
2013-06-25 12:12:00,89.0,67.9,29.90,WNW,297,3.0,8.0,50,0.00,,,0.00,911,Wunderground v.1.15,2013-06-25 16:12:00,
2013-06-25 12:18:00,89.5,67.2,29.89,West,279,3.0,8.0,48,0.00,,,0.00,912,Wunderground v.1.15,2013-06-25 16:18:00,
2013-06-25 12:24:00,88.6,67.0,29.89,NW,308,4.0,10.0,49,0.00,,,0.00,916,Wunderground v.1.15,2013-06-25 16:24:00,
2013-06-25 12:30:00,88.6,67.6,29.89,SSE,166,5.0,5.0,50,0.00,,,0.00,912,Wunderground v.1.15,2013-06-25 16:30:00,
2013-06-25 12:36:00,89.0,67.9,29.89,South,173,4.0,8.0,50,0.00,,,0.00,921,Wunderground v.1.15,2013-06-25 16:36:00,
2013-06-25 12:42:00,89.7,68.6,29.89,WSW,256,3.0,8.0,50,0.00,,,0.00,914,Wunderground v.1.15,2013-06-25 16:42:00,
2013-06-25 12:48:00,89.9,68.2,29.89,NNW,336,3.0,8.0,49,0.00,,,0.00,926,Wunderground v.1.15,2013-06-25 16:48:00,
2013-06-25 12:54:00,90.1,67.8,29.89,West,281,3.0,8.0,48,0.00,,,0.00,921,Wunderground v.1.15,2013-06-25 16:54:00,
2013-06-25 13:00:00,89.9,67.6,29.89,NW,326,3.0,3.0,48,0.00,,,0.00,907,Wunderground v.1.15,2013-06-25 17:00:00,
2013-06-25 13:06:00,90.1,67.8,29.88,West,267,3.0,8.0,48,0.00,,,0.00,888,Wunderground v.1.15,2013-06-25 17:06:00,
2013-06-25 13:12:00,90.1,67.8,29.88,SW,234,3.0,9.0,48,0.00,,,0.00,898,Wunderground v.1.15,2013-06-25 17:12:00,
2013-06-25 13:18:00,89.9,67.6,29.87,SW,223,4.0,9.0,48,0.00,,,0.00,888,Wunderground v.1.15,2013-06-25 17:18:00,
2013-06-25 13:24:00,89.9,67.6,29.87,West,269,4.0,8.0,48,0.00,,,0.00,888,Wunderground v.1.15,2013-06-25 17:24:00,
2013-06-25 13:30:00,89.9,67.0,29.87,WSW,250,4.0,4.0,47,0.00,,,0.00,882,Wunderground v.1.15,2013-06-25 17:30:00,
2013-06-25 13:36:00,90.3,66.7,29.87,NW,304,4.0,7.0,46,0.00,,,0.00,884,Wunderground v.1.15,2013-06-25 17:36:00,
2013-06-25 13:42:00,90.7,66.4,29.87,NW,304,4.0,10.0,45,0.00,,,0.00,879,Wunderground v.1.15,2013-06-25 17:42:00,
2013-06-25 13:48:00,90.5,67.5,29.86,West,261,4.0,10.0,47,0.00,,,0.00,237,Wunderground v.1.15,2013-06-25 17:48:00,
2013-06-25 13:54:00,90.7,67.1,29.86,WNW,298,3.0,5.0,46,0.00,,,0.00,891,Wunderground v.1.15,2013-06-25 17:54:00,
2013-06-25 14:00:00,91.0,66.7,29.86,West,262,4.0,4.0,45,0.00,,,0.00,879,Wunderground v.1.15,2013-06-25 18:00:00,
2013-06-25 14:06:00,90.7,65.1,29.85,SSW,200,5.0,9.0,43,0.00,,,0.00,854,Wunderground v.1.15,2013-06-25 18:06:00,
2013-06-25 14:12:00,90.7,64.5,29.85,WNW,290,5.0,9.0,42,0.00,,,0.00,802,Wunderground v.1.15,2013-06-25 18:12:00,
2013-06-25 14:18:00,91.2,64.9,29.84,West,267,4.0,9.0,42,0.00,,,0.00,884,Wunderground v.1.15,2013-06-25 18:18:00,
2013-06-25 14:24:00,91.8,64.7,29.84,West,259,4.0,9.0,41,0.00,,,0.00,896,Wunderground v.1.15,2013-06-25 18:24:00,
2013-06-25 14:30:00,92.1,65.7,29.84,WSW,248,4.0,9.0,42,0.00,,,0.00,918,Wunderground v.1.15,2013-06-25 18:30:00,
2013-06-25 14:36:00,91.8,66.1,29.84,South,181,4.0,9.0,43,0.00,,,0.00,352,Wunderground v.1.15,2013-06-25 18:36:00,
2013-06-25 14:42:00,92.1,65.7,29.84,West,259,3.0,9.0,42,0.00,,,0.00,919,Wunderground v.1.15,2013-06-25 18:42:00,
2013-06-25 14:48:00,91.8,64.7,29.83,SSW,202,4.0,9.0,41,0.00,,,0.00,846,Wunderground v.1.15,2013-06-25 18:48:00,
2013-06-25 14:54:00,92.3,65.2,29.83,West,276,3.0,9.0,41,0.00,,,0.00,853,Wunderground v.1.15,2013-06-25 18:54:00,
2013-06-25 15:00:00,92.5,63.2,29.83,West,279,4.0,9.0,38,0.00,,,0.00,877,Wunderground v.1.15,2013-06-25 19:00:00,
2013-06-25 15:06:00,92.3,63.8,29.83,SW,227,4.0,9.0,39,0.00,,,0.00,816,Wunderground v.1.15,2013-06-25 19:06:00,
2013-06-25 15:12:00,92.3,64.5,29.83,SSW,201,4.0,9.0,40,0.00,,,0.00,795,Wunderground v.1.15,2013-06-25 19:12:00,
2013-06-25 15:18:00,92.3,65.2,29.82,WSW,241,4.0,9.0,41,0.00,,,0.00,777,Wunderground v.1.15,2013-06-25 19:18:00,
2013-06-25 15:24:00,92.5,64.7,29.82,SSW,206,3.0,9.0,40,0.00,,,0.00,737,Wunderground v.1.15,2013-06-25 19:24:00,
2013-06-25 15:30:00,92.5,64.7,29.82,South,173,2.0,2.0,40,0.00,,,0.00,766,Wunderground v.1.15,2013-06-25 19:30:00,
2013-06-25 15:36:00,92.9,63.6,29.81,SSW,207,2.0,9.0,38,0.00,,,0.00,714,Wunderground v.1.15,2013-06-25 19:36:00,
2013-06-25 15:42:00,92.5,63.9,29.81,SW,215,4.0,9.0,39,0.00,,,0.00,717,Wunderground v.1.15,2013-06-25 19:42:00,
2013-06-25 15:48:00,92.3,63.0,29.80,West,265,4.0,9.0,38,0.00,,,0.00,710,Wunderground v.1.15,2013-06-25 19:48:00,
2013-06-25 15:54:00,91.8,64.0,29.80,SSW,205,5.0,9.0,40,0.00,,,0.00,707,Wunderground v.1.15,2013-06-25 19:54:00,
2013-06-25 16:00:00,91.6,63.9,29.80,NW,309,5.0,9.0,40,0.00,,,0.00,659,Wunderground v.1.15,2013-06-25 20:00:00,
2013-06-25 16:06:00,91.2,64.2,29.80,SSW,194,4.0,12.0,41,0.00,,,0.00,315,Wunderground v.1.15,2013-06-25 20:06:00,
2013-06-25 16:12:00,90.7,64.5,29.80,SSW,196,6.0,6.0,42,0.00,,,0.00,679,Wunderground v.1.15,2013-06-25 20:12:00,
2013-06-25 16:18:00,90.7,64.5,29.79,SW,229,6.0,12.0,42,0.00,,,0.00,640,Wunderground v.1.15,2013-06-25 20:18:00,
2013-06-25 16:24:00,91.0,64.7,29.79,South,187,5.0,12.0,42,0.00,,,0.00,591,Wunderground v.1.15,2013-06-25 20:24:00,
2013-06-25 16:30:00,91.4,66.4,29.79,SSW,202,3.0,12.0,44,0.00,,,0.00,615,Wunderground v.1.15,2013-06-25 20:30:00,
2013-06-25 16:36:00,91.6,65.3,29.78,SW,217,4.0,12.0,42,0.00,,,0.00,545,Wunderground v.1.15,2013-06-25 20:36:00,
2013-06-25 16:42:00,91.4,65.1,29.78,South,182,4.0,8.0,42,0.00,,,0.00,543,Wunderground v.1.15,2013-06-25 20:42:00,
2013-06-25 16:48:00,91.2,65.6,29.78,WNW,285,4.0,12.0,43,0.00,,,0.00,541,Wunderground v.1.15,2013-06-25 20:48:00,
2013-06-25 16:54:00,91.0,64.7,29.78,SSE,167,4.0,12.0,42,0.00,,,0.00,503,Wunderground v.1.15,2013-06-25 20:54:00,
2013-06-25 17:00:00,91.0,65.4,29.78,WNW,290,5.0,5.0,43,0.00,,,0.00,496,Wunderground v.1.15,2013-06-25 21:00:00,
2013-06-25 17:06:00,91.0,66.1,29.78,NNW,347,4.0,12.0,44,0.00,,,0.00,471,Wunderground v.1.15,2013-06-25 21:06:00,
2013-06-25 17:12:00,91.4,66.4,29.78,South,190,2.0,10.0,44,0.00,,,0.00,457,Wunderground v.1.15,2013-06-25 21:12:00,
2013-06-25 17:18:00,91.0,65.4,29.78,SSW,208,4.0,10.0,43,0.00,,,0.00,439,Wunderground v.1.15,2013-06-25 21:18:00,
2013-06-25 17:24:00,90.3,64.8,29.78,WSW,251,4.0,10.0,43,0.00,,,0.00,299,Wunderground v.1.15,2013-06-25 21:24:00,
2013-06-25 17:30:00,90.1,65.9,29.78,South,185,3.0,10.0,45,0.00,,,0.00,167,Wunderground v.1.15,2013-06-25 21:30:00,
2013-06-25 17:36:00,89.9,65.7,29.79,WSW,248,3.0,10.0,45,0.00,,,0.00,397,Wunderground v.1.15,2013-06-25 21:36:00,
2013-06-25 17:42:00,89.9,65.1,29.79,South,181,5.0,10.0,44,0.00,,,0.00,294,Wunderground v.1.15,2013-06-25 21:42:00,
2013-06-25 17:48:00,89.5,65.4,29.78,South,182,5.0,10.0,45,0.00,,,0.00,236,Wunderground v.1.15,2013-06-25 21:48:00,
2013-06-25 17:54:00,89.5,66.0,29.78,SSW,194,3.0,10.0,46,0.00,,,0.00,135,Wunderground v.1.15,2013-06-25 21:54:00,
2013-06-25 18:00:00,89.3,66.4,29.78,WSW,254,3.0,3.0,47,0.00,,,0.00,295,Wunderground v.1.15,2013-06-25 22:00:00,
2013-06-25 18:06:00,89.3,66.4,29.77,SW,227,4.0,10.0,47,0.00,,,0.00,271,Wunderground v.1.15,2013-06-25 22:06:00,
2013-06-25 18:12:00,89.3,65.8,29.77,SW,215,4.0,9.0,46,0.00,,,0.00,223,Wunderground v.1.15,2013-06-25 22:12:00,
2013-06-25 18:18:00,88.8,66.6,29.76,South,173,4.0,10.0,48,0.00,,,0.00,79,Wunderground v.1.15,2013-06-25 22:18:00,
2013-06-25 18:24:00,88.8,66.6,29.76,WSW,244,3.0,5.0,48,0.00,,,0.00,69,Wunderground v.1.15,2013-06-25 22:24:00,
2013-06-25 18:30:00,88.2,66.0,29.76,South,173,4.0,4.0,48,0.00,,,0.00,70,Wunderground v.1.15,2013-06-25 22:30:00,
2013-06-25 18:36:00,88.0,66.4,29.76,SSW,203,5.0,7.0,49,0.00,,,0.00,67,Wunderground v.1.15,2013-06-25 22:36:00,
2013-06-25 18:42:00,87.8,66.8,29.76,South,188,5.0,5.0,50,0.00,,,0.00,51,Wunderground v.1.15,2013-06-25 22:42:00,
2013-06-25 18:48:00,87.6,67.2,29.76,South,179,4.0,6.0,51,0.00,,,0.00,42,Wunderground v.1.15,2013-06-25 22:48:00,
2013-06-25 18:54:00,87.4,67.6,29.76,South,186,3.0,8.0,52,0.00,,,0.00,39,Wunderground v.1.15,2013-06-25 22:54:00,
2013-06-25 19:00:00,87.2,68.0,29.76,SSW,202,3.0,4.0,53,0.00,,,0.00,42,Wunderground v.1.15,2013-06-25 23:00:00,
2013-06-25 19:06:00,87.0,68.3,29.77,South,187,3.0,6.0,54,0.00,,,0.00,49,Wunderground v.1.15,2013-06-25 23:06:00,
2013-06-25 19:12:00,86.7,68.6,29.77,South,190,3.0,5.0,55,0.00,,,0.00,54,Wunderground v.1.15,2013-06-25 23:12:00,
2013-06-25 19:18:00,86.5,68.4,29.76,SSW,212,2.0,7.0,55,0.00,,,0.00,51,Wunderground v.1.15,2013-06-25 23:18:00,
2013-06-25 19:24:00,86.3,68.8,29.76,SSW,200,4.0,10.0,56,0.00,,,0.00,40,Wunderground v.1.15,2013-06-25 23:24:00,
2013-06-25 19:30:00,86.1,68.6,29.76,South,180,5.0,6.0,56,0.00,,,0.00,35,Wunderground v.1.15,2013-06-25 23:30:00,
2013-06-25 19:36:00,85.9,68.4,29.75,SSW,200,4.0,9.0,56,0.00,,,0.00,32,Wunderground v.1.15,2013-06-25 23:36:00,
2013-06-25 19:42:00,85.7,68.2,29.75,South,175,4.0,9.0,56,0.00,,,0.00,23,Wunderground v.1.15,2013-06-25 23:42:00,
2013-06-25 19:48:00,85.7,68.2,29.76,SW,219,3.0,9.0,56,0.00,,,0.00,18,Wunderground v.1.15,2013-06-25 23:48:00,
2013-06-25 19:54:00,85.5,68.0,29.76,SSW,194,2.0,5.0,56,0.00,,,0.00,14,Wunderground v.1.15,2013-06-25 23:54:00,
2013-06-25 20:00:00,85.3,68.3,29.76,WSW,250,3.0,3.0,57,0.00,,,0.00,12,Wunderground v.1.15,2013-06-26 00:00:00,
2013-06-25 20:06:00,84.9,68.0,29.75,SW,221,3.0,8.0,57,0.00,,,0.00,9,Wunderground v.1.15,2013-06-26 00:06:00,
2013-06-25 20:12:00,84.7,68.3,29.75,West,281,3.0,11.0,58,0.00,,,0.00,7,Wunderground v.1.15,2013-06-26 00:12:00,
2013-06-25 20:18:00,84.5,68.1,29.75,South,175,4.0,11.0,58,0.00,,,0.00,5,Wunderground v.1.15,2013-06-26 00:18:00,
2013-06-25 20:24:00,84.3,67.9,29.75,WSW,246,5.0,11.0,58,0.00,,,0.00,0,Wunderground v.1.15,2013-06-26 00:24:00,
2013-06-25 20:30:00,84.1,67.7,29.75,SSE,151,4.0,11.0,58,0.00,,,0.00,0,Wunderground v.1.15,2013-06-26 00:30:00,
2013-06-25 20:36:00,84.0,67.6,29.75,South,169,5.0,11.0,58,0.00,,,0.00,0,Wunderground v.1.15,2013-06-26 00:36:00,
2013-06-25 20:42:00,83.8,67.9,29.75,WSW,244,5.0,11.0,59,0.00,,,0.00,0,Wunderground v.1.15,2013-06-26 00:42:00,
2013-06-25 20:48:00,83.6,68.2,29.75,SSW,198,4.0,11.0,60,0.00,,,0.00,0,Wunderground v.1.15,2013-06-26 00:48:00,
2013-06-25 20:54:00,83.2,67.4,29.75,WSW,249,3.0,11.0,59,0.00,,,0.00,0,Wunderground v.1.15,2013-06-26 00:54:00,
2013-06-25 21:00:00,82.2,66.0,29.75,South,172,5.0,11.0,58,0.00,,,0.00,0,Wunderground v.1.15,2013-06-26 01:00:00,
2013-06-25 21:06:00,81.6,66.4,29.76,SW,222,4.0,11.0,60,0.00,,,0.00,0,Wunderground v.1.15,2013-06-26 01:06:00,
2013-06-25 21:12:00,81.1,65.9,29.76,South,183,3.0,6.0,60,0.00,,,0.00,0,Wunderground v.1.15,2013-06-26 01:12:00,
2013-06-25 21:18:00,80.7,66.0,29.77,West,278,3.0,6.0,61,0.00,,,0.00,0,Wunderground v.1.15,2013-06-26 01:18:00,
2013-06-25 21:24:00,80.3,66.1,29.77,South,191,1.0,5.0,62,0.00,,,0.00,0,Wunderground v.1.15,2013-06-26 01:24:00,
2013-06-25 21:30:00,80.1,65.9,29.77,WSW,248,2.0,2.0,62,0.00,,,0.00,0,Wunderground v.1.15,2013-06-26 01:30:00,
2013-06-25 21:36:00,79.9,65.7,29.77,SSW,204,1.0,5.0,62,0.00,,,0.00,0,Wunderground v.1.15,2013-06-26 01:36:00,
2013-06-25 21:42:00,79.8,66.1,29.77,WNW,291,2.0,5.0,63,0.00,,,0.00,0,Wunderground v.1.15,2013-06-26 01:42:00,
2013-06-25 21:48:00,79.6,66.3,29.77,West,273,2.0,5.0,64,0.00,,,0.00,0,Wunderground v.1.15,2013-06-26 01:48:00,
2013-06-25 21:54:00,79.4,66.6,29.77,WSW,238,1.0,5.0,65,0.00,,,0.00,0,Wunderground v.1.15,2013-06-26 01:54:00,
2013-06-25 22:00:00,79.2,66.4,29.77,SSE,167,0.0,5.0,65,0.00,,,0.00,0,Wunderground v.1.15,2013-06-26 02:00:00,
2013-06-25 22:06:00,78.8,66.5,29.77,SSW,204,1.0,5.0,66,0.00,,,0.00,0,Wunderground v.1.15,2013-06-26 02:06:00,
2013-06-25 22:12:00,78.6,66.7,29.77,West,277,1.0,4.0,67,0.00,,,0.00,0,Wunderground v.1.15,2013-06-26 02:12:00,
2013-06-25 22:18:00,78.5,66.6,29.78,SSW,213,1.0,4.0,67,0.00,,,0.00,0,Wunderground v.1.15,2013-06-26 02:18:00,
2013-06-25 22:24:00,78.3,66.9,29.78,WNW,295,1.0,4.0,68,0.00,,,0.00,0,Wunderground v.1.15,2013-06-26 02:24:00,
2013-06-25 22:30:00,78.1,66.7,29.78,WNW,284,1.0,1.0,68,0.00,,,0.00,0,Wunderground v.1.15,2013-06-26 02:30:00,
2013-06-25 22:36:00,77.9,66.9,29.77,West,277,1.0,4.0,69,0.00,,,0.00,0,Wunderground v.1.15,2013-06-26 02:36:00,
2013-06-25 22:42:00,77.7,66.7,29.77,West,277,1.0,4.0,69,0.00,,,0.00,0,Wunderground v.1.15,2013-06-26 02:42:00,
2013-06-25 22:48:00,77.6,67.0,29.78,West,277,1.0,4.0,70,0.00,,,0.00,0,Wunderground v.1.15,2013-06-26 02:48:00,
2013-06-25 22:54:00,77.4,66.8,29.78,West,277,1.0,4.0,70,0.00,,,0.00,0,Wunderground v.1.15,2013-06-26 02:54:00,
2013-06-25 23:00:00,77.2,67.1,29.78,West,277,0.0,4.0,71,0.00,,,0.00,0,Wunderground v.1.15,2013-06-26 03:00:00,
2013-06-25 23:06:00,77.0,67.3,29.78,West,277,0.0,4.0,72,0.00,,,0.00,0,Wunderground v.1.15,2013-06-26 03:06:00,
2013-06-25 23:12:00,76.8,67.1,29.78,West,277,0.0,3.0,72,0.00,,,0.00,0,Wunderground v.1.15,2013-06-26 03:12:00,
2013-06-25 23:18:00,76.8,67.1,29.78,West,277,0.0,3.0,72,0.00,,,0.00,0,Wunderground v.1.15,2013-06-26 03:18:00,
2013-06-25 23:24:00,76.7,67.8,29.78,West,277,0.0,4.0,74,0.00,,,0.00,0,Wunderground v.1.15,2013-06-26 03:24:00,
2013-06-25 23:30:00,76.7,67.8,29.78,West,277,0.0,3.0,74,0.00,,,0.00,0,Wunderground v.1.15,2013-06-26 03:30:00,
2013-06-25 23:36:00,76.5,68.0,29.78,West,277,0.0,3.0,75,0.00,,,0.00,0,Wunderground v.1.15,2013-06-26 03:36:00,
2013-06-25 23:42:00,76.5,68.0,29.78,West,277,0.0,3.0,75,0.00,,,0.00,0,Wunderground v.1.15,2013-06-26 03:42:00,
2013-06-25 23:48:00,76.3,68.2,29.78,West,277,0.0,3.0,76,0.00,,,0.00,0,Wunderground v.1.15,2013-06-26 03:48:00,
2013-06-25 23:54:00,76.1,68.4,29.78,West,277,0.0,3.0,77,0.00,,,0.00,0,Wunderground v.1.15,2013-06-26 03:54:00,